TELSTAR 14R (37602 NORAD) Tracking and Keplerian Element Data

This shows tracking and keplerian element data for the satellite.

Feedback or suggestion? Click here.




ElementValue
Catalog37602
NameTELSTAR 14R
Epoch Orbit5083
Epoch Day34.74239196
Epoch Year2025
RAAN94.2086
Inclination0.0127
Eccentricity0.00028
Argument of Perigee250.216
Mean Anonmoly353.9717
Mean Motion1.00269544
Decay Rate-2.75E-06
L11 37602U 11021A 25034.74239196 -.00000275 00000+0 00000+0 0 9991
L22 37602 0.0127 94.2086 0002800 250.2160 353.9717 1.00269544 50837



Live tracking and technical data element details for TELSTAR 14R (NORAD 37602). TELSTAR 14R can be tracked NOW for your location showing map with azimuth and elevation plus other details from your city location.







IsCatalogInMostPopularTable: catalog: 37602, numindb: 392
Update: records affected: 1



GetName: 37602 TELSTAR 14R

Hit Count: updated at: Thu, 15 May 2025 20:18:01 GMT